Location: Unspecified
(35.8833°N, 0.0000°E)
Time: 03:28:21
(UTC+00:00)

ISS - Visible Passes

Search period start: 21 May 2019 00:00
Search period end: 31 May 2019 00:00
Orbit: 407 x 410 km, 51.6° (Epoch: 21 May)

Date Brightness Start Highest point End Pass type
(mag) Time Alt. Az. Time Alt. Az. Time Alt. Az.
21 May0.101:46:09E01:46:09E01:37:07NNWvisible
21 May -2.5 03:19:22 25° S 03:19:22 25° S 03:21:04 10° SSE visible
21 May -1.6 19:53:45 10° W 19:56:42 30° NW 19:59:40 10° NNE visible
22 May -0.2 20:42:09 10° NW 20:42:51 10° NNW 20:43:33 10° N visible
23 May -0.7 19:49:35 10° WNW 19:51:36 15° NNW 19:53:38 10° N visible
27 May -0.3 22:54:58 10° NNW 22:55:24 12° NNW 22:55:24 12° NNW visible
28 May -0.9 22:04:33 10° N 22:06:01 13° NNE 22:06:01 13° NNE visible
29 May -0.5 22:49:00 10° NW 22:49:23 13° NW 22:49:23 13° NW visible
30 May -1.4 21:58:13 10° NNW 22:00:04 22° N 22:00:04 22° N visible
